This is the latest recevied weather packets stored in our database for station/object OE6ATD-13. If no packets are shown the sender has not sent any weather packets the latest 10 day(s).
| Time | Temp. | Humidity | Pressure | Rain* | Wind** | Luminosity | Snow |
|---|---|---|---|---|---|---|---|
| 1788675025 | 15.56° C | 99% | 1025.8 hPa | 0 mm | - | 118 W/m² | - |
| 1788674420 | 15.56° C | 99% | 1025.8 hPa | 0 mm | - | 71 W/m² | - |
| 1788673816 | 15° C | 99% | 1025.7 hPa | 0 mm | - | 57 W/m² | - |
| 1788673227 | 15° C | 99% | 1025.6 hPa | 0 mm | - | 43 W/m² | - |
| 1788672623 | 15° C | 99% | 1025.5 hPa | 0 mm | - | 36 W/m² | - |
| 1788672019 | 14.44° C | 99% | 1025.4 hPa | 0 mm | - | 26 W/m² | - |
| 1788671430 | 14.44° C | 99% | 1025 hPa | 0 mm | - | 20 W/m² | - |
| 1788670826 | 15° C | 99% | 1025.1 hPa | 0 mm | - | 19 W/m² | - |
| 1788670221 | 15° C | 99% | 1024.9 hPa | 0 mm | - | 8 W/m² | - |
| 1788669617 | 15° C | 99% | 1024.8 hPa | 0 mm | - | 5 W/m² | - |
| 1788669028 | 15° C | 99% | 1024.9 hPa | 0 mm | - | 1 W/m² | - |
| 1788668424 | 15° C | 99% | 1024.8 hPa | 0 mm | - | 0 W/m² | - |
| 1788667820 | 15° C | 99% | 1024.7 hPa | 0 mm | - | 0 W/m² | - |
| 1788667244 | 15° C | 99% | 1024.5 hPa | 0 mm | - | 0 W/m² | - |
| 1788666630 | 15.56° C | 99% | 1024.5 hPa | 0 mm | - | 0 W/m² | - |
| 1788666026 | 15.56° C | 99% | 1024.4 hPa | 0 mm | - | 0 W/m² | - |
| 1788665422 | 15.56° C | 99% | 1024.3 hPa | 0 mm | - | 0 W/m² | - |
| 1788664817 | 15.56° C | 99% | 1024.2 hPa | 0 mm | - | 0 W/m² | - |
| 1788664229 | 15.56° C | 99% | 1024.1 hPa | 0 mm | - | 0 W/m² | - |
| 1788663624 | 15.56° C | 99% | 1024 hPa | 0 mm | - | 0 W/m² | - |
| 1788663020 | 16.11° C | 99% | 1024.1 hPa | 0 mm | - | 0 W/m² | - |
| 1788662430 | 16.11° C | 99% | 1024.1 hPa | 0 mm | - | 0 W/m² | - |
| 1788661825 | 15.56° C | 99% | 1024.1 hPa | 0 mm | - | 0 W/m² | - |
| 1788661221 | 15.56° C | 99% | 1024 hPa | 0 mm | - | 0 W/m² | - |
| 1788660617 | 15.56° C | 99% | 1024 hPa | 0 mm | - | 0 W/m² | - |
* Rain latest hour (hover to see other rain measurements)
** Current wind speed in m/s (hover to see current wind gust speed)